Index of /20260423/WXO-DD/model_gdps/15km/12/039
Name Last modified Size Description
Parent Directory -
20260423T12Z_MSC_GDPS_AbsoluteVorticity_IsbL-0200_LatLon0.15_PT039H.grib2 2026-04-23 16:06 1.5M
20260423T12Z_MSC_GDPS_AbsoluteVorticity_IsbL-0250_LatLon0.15_PT039H.grib2 2026-04-23 16:06 1.3M
20260423T12Z_MSC_GDPS_AbsoluteVorticity_IsbL-0500_LatLon0.15_PT039H.grib2 2026-04-23 16:06 1.5M
20260423T12Z_MSC_GDPS_AbsoluteVorticity_IsbL-0700_LatLon0.15_PT039H.grib2 2026-04-23 16:06 1.6M
20260423T12Z_MSC_GDPS_AbsoluteVorticity_IsbL-0850_LatLon0.15_PT039H.grib2 2026-04-23 16:06 1.6M
20260423T12Z_MSC_GDPS_AirTemp_AGL-120m_LatLon0.15_PT039H.grib2 2026-04-23 16:06 904K
20260423T12Z_MSC_GDPS_AirTemp_AGL-2m_LatLon0.15_PT039H.grib2 2026-04-23 16:06 1.0M
20260423T12Z_MSC_GDPS_AirTemp_AGL-40m_LatLon0.15_PT039H.grib2 2026-04-23 16:06 809K
20260423T12Z_MSC_GDPS_AirTemp_AGL-80m_LatLon0.15_PT039H.grib2 2026-04-23 16:06 913K
20260423T12Z_MSC_GDPS_AirTemp_IsbL-0001_LatLon0.15_PT039H.grib2 2026-04-23 16:06 708K
20260423T12Z_MSC_GDPS_AirTemp_IsbL-0005_LatLon0.15_PT039H.grib2 2026-04-23 16:06 687K
20260423T12Z_MSC_GDPS_AirTemp_IsbL-0010_LatLon0.15_PT039H.grib2 2026-04-23 16:06 758K
20260423T12Z_MSC_GDPS_AirTemp_IsbL-0020_LatLon0.15_PT039H.grib2 2026-04-23 16:06 697K
20260423T12Z_MSC_GDPS_AirTemp_IsbL-0030_LatLon0.15_PT039H.grib2 2026-04-23 16:06 747K
20260423T12Z_MSC_GDPS_AirTemp_IsbL-0050_LatLon0.15_PT039H.grib2 2026-04-23 16:06 811K
20260423T12Z_MSC_GDPS_AirTemp_IsbL-0100_LatLon0.15_PT039H.grib2 2026-04-23 16:06 947K
20260423T12Z_MSC_GDPS_AirTemp_IsbL-0150_LatLon0.15_PT039H.grib2 2026-04-23 16:06 1.0M
20260423T12Z_MSC_GDPS_AirTemp_IsbL-0175_LatLon0.15_PT039H.grib2 2026-04-23 16:06 962K
20260423T12Z_MSC_GDPS_AirTemp_IsbL-0200_LatLon0.15_PT039H.grib2 2026-04-23 16:06 972K
20260423T12Z_MSC_GDPS_AirTemp_IsbL-0225_LatLon0.15_PT039H.grib2 2026-04-23 16:06 971K
20260423T12Z_MSC_GDPS_AirTemp_IsbL-0250_LatLon0.15_PT039H.grib2 2026-04-23 16:06 1.0M
20260423T12Z_MSC_GDPS_AirTemp_IsbL-0275_LatLon0.15_PT039H.grib2 2026-04-23 16:06 1.0M
20260423T12Z_MSC_GDPS_AirTemp_IsbL-0300_LatLon0.15_PT039H.grib2 2026-04-23 16:06 1.0M
20260423T12Z_MSC_GDPS_AirTemp_IsbL-0350_LatLon0.15_PT039H.grib2 2026-04-23 16:06 934K
20260423T12Z_MSC_GDPS_AirTemp_IsbL-0400_LatLon0.15_PT039H.grib2 2026-04-23 16:06 944K
20260423T12Z_MSC_GDPS_AirTemp_IsbL-0450_LatLon0.15_PT039H.grib2 2026-04-23 16:06 965K
20260423T12Z_MSC_GDPS_AirTemp_IsbL-0500_LatLon0.15_PT039H.grib2 2026-04-23 16:06 768K
20260423T12Z_MSC_GDPS_AirTemp_IsbL-0550_LatLon0.15_PT039H.grib2 2026-04-23 16:06 801K
20260423T12Z_MSC_GDPS_AirTemp_IsbL-0600_LatLon0.15_PT039H.grib2 2026-04-23 16:06 888K
20260423T12Z_MSC_GDPS_AirTemp_IsbL-0650_LatLon0.15_PT039H.grib2 2026-04-23 16:06 905K
20260423T12Z_MSC_GDPS_AirTemp_IsbL-0700_LatLon0.15_PT039H.grib2 2026-04-23 16:06 937K
20260423T12Z_MSC_GDPS_AirTemp_IsbL-0750_LatLon0.15_PT039H.grib2 2026-04-23 16:06 1.0M
20260423T12Z_MSC_GDPS_AirTemp_IsbL-0800_LatLon0.15_PT039H.grib2 2026-04-23 16:06 1.1M
20260423T12Z_MSC_GDPS_AirTemp_IsbL-0850_LatLon0.15_PT039H.grib2 2026-04-23 16:06 1.1M
20260423T12Z_MSC_GDPS_AirTemp_IsbL-0875_LatLon0.15_PT039H.grib2 2026-04-23 16:06 1.1M
20260423T12Z_MSC_GDPS_AirTemp_IsbL-0900_LatLon0.15_PT039H.grib2 2026-04-23 16:06 1.1M
20260423T12Z_MSC_GDPS_AirTemp_IsbL-0925_LatLon0.15_PT039H.grib2 2026-04-23 16:06 1.1M
20260423T12Z_MSC_GDPS_AirTemp_IsbL-0950_LatLon0.15_PT039H.grib2 2026-04-23 16:06 1.1M
20260423T12Z_MSC_GDPS_AirTemp_IsbL-0970_LatLon0.15_PT039H.grib2 2026-04-23 16:06 1.1M
20260423T12Z_MSC_GDPS_AirTemp_IsbL-0985_LatLon0.15_PT039H.grib2 2026-04-23 16:06 1.1M
20260423T12Z_MSC_GDPS_AirTemp_IsbL-1000_LatLon0.15_PT039H.grib2 2026-04-23 16:06 1.1M
20260423T12Z_MSC_GDPS_AirTemp_IsbL-1015_LatLon0.15_PT039H.grib2 2026-04-23 16:06 1.1M
20260423T12Z_MSC_GDPS_Albedo_Sfc_LatLon0.15_PT039H.grib2 2026-04-23 16:06 247K
20260423T12Z_MSC_GDPS_CAPE_Sfc_LatLon0.15_PT039H.grib2 2026-04-23 16:06 3.9M
20260423T12Z_MSC_GDPS_CIN_Sfc_LatLon0.15_PT039H.grib2 2026-04-23 16:06 2.9M
20260423T12Z_MSC_GDPS_CloudWater_EAtm_LatLon0.15_PT039H.grib2 2026-04-23 16:06 529K
20260423T12Z_MSC_GDPS_ConvectivePrecip-Accum_Sfc_LatLon0.15_PT039H.grib2 2026-04-23 16:06 2.7M
20260423T12Z_MSC_GDPS_DewPointDepression_AGL-2m_LatLon0.15_PT039H.grib2 2026-04-23 16:06 754K
20260423T12Z_MSC_GDPS_DewPointDepression_IsbL-0010_LatLon0.15_PT039H.grib2 2026-04-23 16:06 47K
20260423T12Z_MSC_GDPS_DewPointDepression_IsbL-0020_LatLon0.15_PT039H.grib2 2026-04-23 16:06 76K
20260423T12Z_MSC_GDPS_DewPointDepression_IsbL-0030_LatLon0.15_PT039H.grib2 2026-04-23 16:06 79K
20260423T12Z_MSC_GDPS_DewPointDepression_IsbL-0050_LatLon0.15_PT039H.grib2 2026-04-23 16:06 361K
20260423T12Z_MSC_GDPS_DewPointDepression_IsbL-0100_LatLon0.15_PT039H.grib2 2026-04-23 16:06 403K
20260423T12Z_MSC_GDPS_DewPointDepression_IsbL-0150_LatLon0.15_PT039H.grib2 2026-04-23 16:06 475K
20260423T12Z_MSC_GDPS_DewPointDepression_IsbL-0175_LatLon0.15_PT039H.grib2 2026-04-23 16:06 561K
20260423T12Z_MSC_GDPS_DewPointDepression_IsbL-0200_LatLon0.15_PT039H.grib2 2026-04-23 16:06 649K
20260423T12Z_MSC_GDPS_DewPointDepression_IsbL-0225_LatLon0.15_PT039H.grib2 2026-04-23 16:06 764K
20260423T12Z_MSC_GDPS_DewPointDepression_IsbL-0250_LatLon0.15_PT039H.grib2 2026-04-23 16:06 859K
20260423T12Z_MSC_GDPS_DewPointDepression_IsbL-0275_LatLon0.15_PT039H.grib2 2026-04-23 16:06 891K
20260423T12Z_MSC_GDPS_DewPointDepression_IsbL-0300_LatLon0.15_PT039H.grib2 2026-04-23 16:06 945K
20260423T12Z_MSC_GDPS_DewPointDepression_IsbL-0350_LatLon0.15_PT039H.grib2 2026-04-23 16:06 1.0M
20260423T12Z_MSC_GDPS_DewPointDepression_IsbL-0400_LatLon0.15_PT039H.grib2 2026-04-23 16:06 1.0M
20260423T12Z_MSC_GDPS_DewPointDepression_IsbL-0450_LatLon0.15_PT039H.grib2 2026-04-23 16:06 1.0M
20260423T12Z_MSC_GDPS_DewPointDepression_IsbL-0500_LatLon0.15_PT039H.grib2 2026-04-23 16:06 1.0M
20260423T12Z_MSC_GDPS_DewPointDepression_IsbL-0550_LatLon0.15_PT039H.grib2 2026-04-23 16:06 1.0M
20260423T12Z_MSC_GDPS_DewPointDepression_IsbL-0600_LatLon0.15_PT039H.grib2 2026-04-23 16:06 1.0M
20260423T12Z_MSC_GDPS_DewPointDepression_IsbL-0650_LatLon0.15_PT039H.grib2 2026-04-23 16:06 1.0M
20260423T12Z_MSC_GDPS_DewPointDepression_IsbL-0700_LatLon0.15_PT039H.grib2 2026-04-23 16:06 1.1M
20260423T12Z_MSC_GDPS_DewPointDepression_IsbL-0750_LatLon0.15_PT039H.grib2 2026-04-23 16:06 1.1M
20260423T12Z_MSC_GDPS_DewPointDepression_IsbL-0800_LatLon0.15_PT039H.grib2 2026-04-23 16:06 1.1M
20260423T12Z_MSC_GDPS_DewPointDepression_IsbL-0850_LatLon0.15_PT039H.grib2 2026-04-23 16:06 1.1M
20260423T12Z_MSC_GDPS_DewPointDepression_IsbL-0875_LatLon0.15_PT039H.grib2 2026-04-23 16:06 1.1M
20260423T12Z_MSC_GDPS_DewPointDepression_IsbL-0900_LatLon0.15_PT039H.grib2 2026-04-23 16:06 1.0M
20260423T12Z_MSC_GDPS_DewPointDepression_IsbL-0925_LatLon0.15_PT039H.grib2 2026-04-23 16:06 1.0M
20260423T12Z_MSC_GDPS_DewPointDepression_IsbL-0950_LatLon0.15_PT039H.grib2 2026-04-23 16:06 1.0M
20260423T12Z_MSC_GDPS_DewPointDepression_IsbL-0970_LatLon0.15_PT039H.grib2 2026-04-23 16:06 1.0M
20260423T12Z_MSC_GDPS_DewPointDepression_IsbL-0985_LatLon0.15_PT039H.grib2 2026-04-23 16:06 1.0M
20260423T12Z_MSC_GDPS_DewPointDepression_IsbL-1000_LatLon0.15_PT039H.grib2 2026-04-23 16:06 970K
20260423T12Z_MSC_GDPS_DewPointDepression_IsbL-1015_LatLon0.15_PT039H.grib2 2026-04-23 16:06 909K
20260423T12Z_MSC_GDPS_DewPoint_AGL-2m_LatLon0.15_PT039H.grib2 2026-04-23 16:06 601K
20260423T12Z_MSC_GDPS_DownwardLongwaveRadiationFlux-Accum_Sfc_LatLon0.15_PT039H.grib2 2026-04-23 16:06 741K
20260423T12Z_MSC_GDPS_DownwardShortwaveRadiationFlux-Accum_NTAtm_LatLon0.15_PT039H.grib2 2026-04-23 16:06 317K
20260423T12Z_MSC_GDPS_DownwardShortwaveRadiationFlux-Accum_Sfc_LatLon0.15_PT039H.grib2 2026-04-23 16:06 1.0M
20260423T12Z_MSC_GDPS_FreezingRain-Accum1h_Sfc_LatLon0.15_PT039H.grib2 2026-04-23 16:06 36K
20260423T12Z_MSC_GDPS_FreezingRain-Accum3h_Sfc_LatLon0.15_PT039H.grib2 2026-04-23 16:06 50K
20260423T12Z_MSC_GDPS_FreezingRain-Accum_Sfc_LatLon0.15_PT039H.grib2 2026-04-23 16:06 204K
20260423T12Z_MSC_GDPS_GeopotentialHeight_IsbL-0001_LatLon0.15_PT039H.grib2 2026-04-23 16:06 401K
20260423T12Z_MSC_GDPS_GeopotentialHeight_IsbL-0005_LatLon0.15_PT039H.grib2 2026-04-23 16:06 498K
20260423T12Z_MSC_GDPS_GeopotentialHeight_IsbL-0010_LatLon0.15_PT039H.grib2 2026-04-23 16:06 481K
20260423T12Z_MSC_GDPS_GeopotentialHeight_IsbL-0020_LatLon0.15_PT039H.grib2 2026-04-23 16:06 567K
20260423T12Z_MSC_GDPS_GeopotentialHeight_IsbL-0030_LatLon0.15_PT039H.grib2 2026-04-23 16:06 573K
20260423T12Z_MSC_GDPS_GeopotentialHeight_IsbL-0050_LatLon0.15_PT039H.grib2 2026-04-23 16:06 568K
20260423T12Z_MSC_GDPS_GeopotentialHeight_IsbL-0100_LatLon0.15_PT039H.grib2 2026-04-23 16:06 602K
20260423T12Z_MSC_GDPS_GeopotentialHeight_IsbL-0150_LatLon0.15_PT039H.grib2 2026-04-23 16:06 622K
20260423T12Z_MSC_GDPS_GeopotentialHeight_IsbL-0175_LatLon0.15_PT039H.grib2 2026-04-23 16:06 628K
20260423T12Z_MSC_GDPS_GeopotentialHeight_IsbL-0200_LatLon0.15_PT039H.grib2 2026-04-23 16:06 632K
20260423T12Z_MSC_GDPS_GeopotentialHeight_IsbL-0225_LatLon0.15_PT039H.grib2 2026-04-23 16:06 635K
20260423T12Z_MSC_GDPS_GeopotentialHeight_IsbL-0250_LatLon0.15_PT039H.grib2 2026-04-23 16:06 637K
20260423T12Z_MSC_GDPS_GeopotentialHeight_IsbL-0275_LatLon0.15_PT039H.grib2 2026-04-23 16:06 634K
20260423T12Z_MSC_GDPS_GeopotentialHeight_IsbL-0300_LatLon0.15_PT039H.grib2 2026-04-23 16:06 633K
20260423T12Z_MSC_GDPS_GeopotentialHeight_IsbL-0350_LatLon0.15_PT039H.grib2 2026-04-23 16:06 624K
20260423T12Z_MSC_GDPS_GeopotentialHeight_IsbL-0400_LatLon0.15_PT039H.grib2 2026-04-23 16:06 618K
20260423T12Z_MSC_GDPS_GeopotentialHeight_IsbL-0450_LatLon0.15_PT039H.grib2 2026-04-23 16:06 539K
20260423T12Z_MSC_GDPS_GeopotentialHeight_IsbL-0500_LatLon0.15_PT039H.grib2 2026-04-23 16:06 529K
20260423T12Z_MSC_GDPS_GeopotentialHeight_IsbL-0550_LatLon0.15_PT039H.grib2 2026-04-23 16:06 521K
20260423T12Z_MSC_GDPS_GeopotentialHeight_IsbL-0600_LatLon0.15_PT039H.grib2 2026-04-23 16:06 515K
20260423T12Z_MSC_GDPS_GeopotentialHeight_IsbL-0650_LatLon0.15_PT039H.grib2 2026-04-23 16:06 677K
20260423T12Z_MSC_GDPS_GeopotentialHeight_IsbL-0700_LatLon0.15_PT039H.grib2 2026-04-23 16:06 669K
20260423T12Z_MSC_GDPS_GeopotentialHeight_IsbL-0750_LatLon0.15_PT039H.grib2 2026-04-23 16:06 679K
20260423T12Z_MSC_GDPS_GeopotentialHeight_IsbL-0800_LatLon0.15_PT039H.grib2 2026-04-23 16:06 686K
20260423T12Z_MSC_GDPS_GeopotentialHeight_IsbL-0850_LatLon0.15_PT039H.grib2 2026-04-23 16:06 698K
20260423T12Z_MSC_GDPS_GeopotentialHeight_IsbL-0875_LatLon0.15_PT039H.grib2 2026-04-23 16:06 708K
20260423T12Z_MSC_GDPS_GeopotentialHeight_IsbL-0900_LatLon0.15_PT039H.grib2 2026-04-23 16:06 715K
20260423T12Z_MSC_GDPS_GeopotentialHeight_IsbL-0925_LatLon0.15_PT039H.grib2 2026-04-23 16:06 719K
20260423T12Z_MSC_GDPS_GeopotentialHeight_IsbL-0950_LatLon0.15_PT039H.grib2 2026-04-23 16:06 730K
20260423T12Z_MSC_GDPS_GeopotentialHeight_IsbL-0970_LatLon0.15_PT039H.grib2 2026-04-23 16:06 741K
20260423T12Z_MSC_GDPS_GeopotentialHeight_IsbL-0985_LatLon0.15_PT039H.grib2 2026-04-23 16:06 757K
20260423T12Z_MSC_GDPS_GeopotentialHeight_IsbL-1000_LatLon0.15_PT039H.grib2 2026-04-23 16:06 780K
20260423T12Z_MSC_GDPS_GeopotentialHeight_IsbL-1015_LatLon0.15_PT039H.grib2 2026-04-23 16:06 802K
20260423T12Z_MSC_GDPS_Humidex_Sfc_LatLon0.15_PT039H.grib2 2026-04-23 16:06 5.3M
20260423T12Z_MSC_GDPS_IcePellets-Accum1h_Sfc_LatLon0.15_PT039H.grib2 2026-04-23 16:06 29K
20260423T12Z_MSC_GDPS_IcePellets-Accum3h_Sfc_LatLon0.15_PT039H.grib2 2026-04-23 16:06 34K
20260423T12Z_MSC_GDPS_IcePellets-Accum_Sfc_LatLon0.15_PT039H.grib2 2026-04-23 16:06 67K
20260423T12Z_MSC_GDPS_KIndex_Sfc_LatLon0.15_PT039H.grib2 2026-04-23 16:06 6.0M
20260423T12Z_MSC_GDPS_LatentHeatNetFlux_Sfc_LatLon0.15_PT039H.grib2 2026-04-23 16:06 502K
20260423T12Z_MSC_GDPS_LiftedIndex-MU-VT_IsbL-0500_LatLon0.15_PT039H.grib2 2026-04-23 16:06 5.4M
20260423T12Z_MSC_GDPS_NetLongwaveRadiationFlux-Accum_Sfc_LatLon0.15_PT039H.grib2 2026-04-23 16:06 1.0M
20260423T12Z_MSC_GDPS_NetShortwaveRadiationFlux-Accum_Sfc_LatLon0.15_PT039H.grib2 2026-04-23 16:06 957K
20260423T12Z_MSC_GDPS_O3MixingRatio_LatLon0.15_PT039H.grib2 2026-04-23 16:50 2.3M
20260423T12Z_MSC_GDPS_O3_EAtm_LatLon0.15_PT039H.grib2 2026-04-23 16:50 2.5M
20260423T12Z_MSC_GDPS_PlanetaryBoundaryLayerHeight_Sfc_LatLon0.15_PT039H.grib2 2026-04-23 16:06 2.4M
20260423T12Z_MSC_GDPS_Precip-Accum1h_Sfc_LatLon0.15_PT039H.grib2 2026-04-23 16:06 3.2M
20260423T12Z_MSC_GDPS_Precip-Accum3h_Sfc_LatLon0.15_PT039H.grib2 2026-04-23 16:06 3.5M
20260423T12Z_MSC_GDPS_Precip-Accum_Sfc_LatLon0.15_PT039H.grib2 2026-04-23 16:06 4.7M
20260423T12Z_MSC_GDPS_PrecipRate_Sfc_LatLon0.15_PT039H.grib2 2026-04-23 16:06 3.0M
20260423T12Z_MSC_GDPS_PrecipType-Instant_Sfc_LatLon0.15_PT039H.grib2 2026-04-23 16:06 1.5M
20260423T12Z_MSC_GDPS_Pressure_MSL_LatLon0.15_PT039H.grib2 2026-04-23 16:06 827K
20260423T12Z_MSC_GDPS_Pressure_PVU-1.5_LatLon0.15_PT039H.grib2 2026-04-23 16:06 5.8M
20260423T12Z_MSC_GDPS_Pressure_PVU-1_LatLon0.15_PT039H.grib2 2026-04-23 16:06 6.0M
20260423T12Z_MSC_GDPS_Pressure_PVU-2_LatLon0.15_PT039H.grib2 2026-04-23 16:06 5.6M
20260423T12Z_MSC_GDPS_Pressure_Sfc_LatLon0.15_PT039H.grib2 2026-04-23 16:06 1.1M
20260423T12Z_MSC_GDPS_RadiativeTemp_Sfc_LatLon0.15_PT039H.grib2 2026-04-23 16:06 657K
20260423T12Z_MSC_GDPS_Rain-Accum1h_Sfc_LatLon0.15_PT039H.grib2 2026-04-23 16:06 1.6M
20260423T12Z_MSC_GDPS_Rain-Accum3h_Sfc_LatLon0.15_PT039H.grib2 2026-04-23 16:06 1.6M
20260423T12Z_MSC_GDPS_Rain-Accum_Sfc_LatLon0.15_PT039H.grib2 2026-04-23 16:06 3.4M
20260423T12Z_MSC_GDPS_RelativeHumidity_AGL-2m_LatLon0.15_PT039H.grib2 2026-04-23 16:06 1.0M
20260423T12Z_MSC_GDPS_RelativeHumidity_IsbL-0010_LatLon0.15_PT039H.grib2 2026-04-23 16:06 271K
20260423T12Z_MSC_GDPS_RelativeHumidity_IsbL-0020_LatLon0.15_PT039H.grib2 2026-04-23 16:06 286K
20260423T12Z_MSC_GDPS_RelativeHumidity_IsbL-0030_LatLon0.15_PT039H.grib2 2026-04-23 16:06 427K
20260423T12Z_MSC_GDPS_RelativeHumidity_IsbL-0050_LatLon0.15_PT039H.grib2 2026-04-23 16:06 335K
20260423T12Z_MSC_GDPS_RelativeHumidity_IsbL-0100_LatLon0.15_PT039H.grib2 2026-04-23 16:06 497K
20260423T12Z_MSC_GDPS_RelativeHumidity_IsbL-0150_LatLon0.15_PT039H.grib2 2026-04-23 16:06 653K
20260423T12Z_MSC_GDPS_RelativeHumidity_IsbL-0175_LatLon0.15_PT039H.grib2 2026-04-23 16:06 784K
20260423T12Z_MSC_GDPS_RelativeHumidity_IsbL-0200_LatLon0.15_PT039H.grib2 2026-04-23 16:06 691K
20260423T12Z_MSC_GDPS_RelativeHumidity_IsbL-0225_LatLon0.15_PT039H.grib2 2026-04-23 16:06 779K
20260423T12Z_MSC_GDPS_RelativeHumidity_IsbL-0250_LatLon0.15_PT039H.grib2 2026-04-23 16:06 863K
20260423T12Z_MSC_GDPS_RelativeHumidity_IsbL-0275_LatLon0.15_PT039H.grib2 2026-04-23 16:06 887K
20260423T12Z_MSC_GDPS_RelativeHumidity_IsbL-0300_LatLon0.15_PT039H.grib2 2026-04-23 16:06 934K
20260423T12Z_MSC_GDPS_RelativeHumidity_IsbL-0350_LatLon0.15_PT039H.grib2 2026-04-23 16:06 959K
20260423T12Z_MSC_GDPS_RelativeHumidity_IsbL-0400_LatLon0.15_PT039H.grib2 2026-04-23 16:06 1.0M
20260423T12Z_MSC_GDPS_RelativeHumidity_IsbL-0450_LatLon0.15_PT039H.grib2 2026-04-23 16:06 1.0M
20260423T12Z_MSC_GDPS_RelativeHumidity_IsbL-0500_LatLon0.15_PT039H.grib2 2026-04-23 16:06 1.0M
20260423T12Z_MSC_GDPS_RelativeHumidity_IsbL-0550_LatLon0.15_PT039H.grib2 2026-04-23 16:06 1.1M
20260423T12Z_MSC_GDPS_RelativeHumidity_IsbL-0600_LatLon0.15_PT039H.grib2 2026-04-23 16:06 1.1M
20260423T12Z_MSC_GDPS_RelativeHumidity_IsbL-0650_LatLon0.15_PT039H.grib2 2026-04-23 16:06 1.1M
20260423T12Z_MSC_GDPS_RelativeHumidity_IsbL-0700_LatLon0.15_PT039H.grib2 2026-04-23 16:06 1.1M
20260423T12Z_MSC_GDPS_RelativeHumidity_IsbL-0750_LatLon0.15_PT039H.grib2 2026-04-23 16:06 1.2M
20260423T12Z_MSC_GDPS_RelativeHumidity_IsbL-0800_LatLon0.15_PT039H.grib2 2026-04-23 16:06 1.2M
20260423T12Z_MSC_GDPS_RelativeHumidity_IsbL-0850_LatLon0.15_PT039H.grib2 2026-04-23 16:06 1.3M
20260423T12Z_MSC_GDPS_RelativeHumidity_IsbL-0875_LatLon0.15_PT039H.grib2 2026-04-23 16:06 1.2M
20260423T12Z_MSC_GDPS_RelativeHumidity_IsbL-0900_LatLon0.15_PT039H.grib2 2026-04-23 16:06 1.2M
20260423T12Z_MSC_GDPS_RelativeHumidity_IsbL-0925_LatLon0.15_PT039H.grib2 2026-04-23 16:06 1.2M
20260423T12Z_MSC_GDPS_RelativeHumidity_IsbL-0950_LatLon0.15_PT039H.grib2 2026-04-23 16:06 1.2M
20260423T12Z_MSC_GDPS_RelativeHumidity_IsbL-0970_LatLon0.15_PT039H.grib2 2026-04-23 16:06 1.2M
20260423T12Z_MSC_GDPS_RelativeHumidity_IsbL-0985_LatLon0.15_PT039H.grib2 2026-04-23 16:06 1.1M
20260423T12Z_MSC_GDPS_RelativeHumidity_IsbL-1000_LatLon0.15_PT039H.grib2 2026-04-23 16:06 1.1M
20260423T12Z_MSC_GDPS_RelativeHumidity_IsbL-1015_LatLon0.15_PT039H.grib2 2026-04-23 16:06 1.0M
20260423T12Z_MSC_GDPS_RelativeVorticity_IsbL-0200_LatLon0.15_PT039H.grib2 2026-04-23 16:06 1.5M
20260423T12Z_MSC_GDPS_RelativeVorticity_IsbL-0250_LatLon0.15_PT039H.grib2 2026-04-23 16:06 1.6M
20260423T12Z_MSC_GDPS_RelativeVorticity_IsbL-0500_LatLon0.15_PT039H.grib2 2026-04-23 16:06 1.5M
20260423T12Z_MSC_GDPS_RelativeVorticity_IsbL-0700_LatLon0.15_PT039H.grib2 2026-04-23 16:06 1.6M
20260423T12Z_MSC_GDPS_RelativeVorticity_IsbL-0850_LatLon0.15_PT039H.grib2 2026-04-23 16:06 1.6M
20260423T12Z_MSC_GDPS_Runoff-Accum_Sfc_LatLon0.15_PT039H.grib2 2026-04-23 16:06 96K
20260423T12Z_MSC_GDPS_SensibleHeatNetFlux_Sfc_LatLon0.15_PT039H.grib2 2026-04-23 16:06 459K
20260423T12Z_MSC_GDPS_ShowalterIndex_IsbL-0500_LatLon0.15_PT039H.grib2 2026-04-23 16:06 6.2M
20260423T12Z_MSC_GDPS_Snow-Accum1h_Sfc_LatLon0.15_PT039H.grib2 2026-04-23 16:06 1.3M
20260423T12Z_MSC_GDPS_Snow-Accum3h_Sfc_LatLon0.15_PT039H.grib2 2026-04-23 16:06 1.3M
20260423T12Z_MSC_GDPS_Snow-Accum_Sfc_LatLon0.15_PT039H.grib2 2026-04-23 16:06 1.8M
20260423T12Z_MSC_GDPS_SnowDensity_Sfc_LatLon0.15_PT039H.grib2 2026-04-23 16:06 264K
20260423T12Z_MSC_GDPS_SnowDepth_Sfc_LatLon0.15_PT039H.grib2 2026-04-23 16:06 1.8M
20260423T12Z_MSC_GDPS_SoilTemp_DBS-0to10cm_LatLon0.15_PT039H.grib2 2026-04-23 16:06 502K
20260423T12Z_MSC_GDPS_SoilTemp_Sfc_LatLon0.15_PT039H.grib2 2026-04-23 16:06 578K
20260423T12Z_MSC_GDPS_SoilVolumetricIceContent_Sfc_LatLon0.15_PT039H.grib2 2026-04-23 16:06 215K
20260423T12Z_MSC_GDPS_SoilVolumetricWaterContent_DBS-0to10cm_LatLon0.15_PT039H.grib2 2026-04-23 16:06 560K
20260423T12Z_MSC_GDPS_SoilVolumetricWaterContent_DBS-0to1cm_LatLon0.15_PT039H.grib2 2026-04-23 16:06 651K
20260423T12Z_MSC_GDPS_SpecificHumidity_AGL-120m_LatLon0.15_PT039H.grib2 2026-04-23 16:06 1.1M
20260423T12Z_MSC_GDPS_SpecificHumidity_AGL-2m_LatLon0.15_PT039H.grib2 2026-04-23 16:06 1.2M
20260423T12Z_MSC_GDPS_SpecificHumidity_AGL-40m_LatLon0.15_PT039H.grib2 2026-04-23 16:06 1.1M
20260423T12Z_MSC_GDPS_SpecificHumidity_AGL-80m_LatLon0.15_PT039H.grib2 2026-04-23 16:06 1.1M
20260423T12Z_MSC_GDPS_SpecificHumidity_IsbL-0001_LatLon0.15_PT039H.grib2 2026-04-23 16:06 1.0M
20260423T12Z_MSC_GDPS_SpecificHumidity_IsbL-0005_LatLon0.15_PT039H.grib2 2026-04-23 16:06 1.2M
20260423T12Z_MSC_GDPS_SpecificHumidity_IsbL-0010_LatLon0.15_PT039H.grib2 2026-04-23 16:06 1.3M
20260423T12Z_MSC_GDPS_SpecificHumidity_IsbL-0020_LatLon0.15_PT039H.grib2 2026-04-23 16:06 1.4M
20260423T12Z_MSC_GDPS_SpecificHumidity_IsbL-0030_LatLon0.15_PT039H.grib2 2026-04-23 16:06 1.7M
20260423T12Z_MSC_GDPS_SpecificHumidity_IsbL-0050_LatLon0.15_PT039H.grib2 2026-04-23 16:06 1.4M
20260423T12Z_MSC_GDPS_SpecificHumidity_IsbL-0100_LatLon0.15_PT039H.grib2 2026-04-23 16:06 1.4M
20260423T12Z_MSC_GDPS_SpecificHumidity_IsbL-0150_LatLon0.15_PT039H.grib2 2026-04-23 16:06 1.2M
20260423T12Z_MSC_GDPS_SpecificHumidity_IsbL-0175_LatLon0.15_PT039H.grib2 2026-04-23 16:06 1.3M
20260423T12Z_MSC_GDPS_SpecificHumidity_IsbL-0200_LatLon0.15_PT039H.grib2 2026-04-23 16:06 1.3M
20260423T12Z_MSC_GDPS_SpecificHumidity_IsbL-0225_LatLon0.15_PT039H.grib2 2026-04-23 16:06 1.3M
20260423T12Z_MSC_GDPS_SpecificHumidity_IsbL-0250_LatLon0.15_PT039H.grib2 2026-04-23 16:06 1.4M
20260423T12Z_MSC_GDPS_SpecificHumidity_IsbL-0275_LatLon0.15_PT039H.grib2 2026-04-23 16:06 1.3M
20260423T12Z_MSC_GDPS_SpecificHumidity_IsbL-0300_LatLon0.15_PT039H.grib2 2026-04-23 16:06 1.5M
20260423T12Z_MSC_GDPS_SpecificHumidity_IsbL-0350_LatLon0.15_PT039H.grib2 2026-04-23 16:06 1.5M
20260423T12Z_MSC_GDPS_SpecificHumidity_IsbL-0400_LatLon0.15_PT039H.grib2 2026-04-23 16:06 1.5M
20260423T12Z_MSC_GDPS_SpecificHumidity_IsbL-0450_LatLon0.15_PT039H.grib2 2026-04-23 16:06 1.6M
20260423T12Z_MSC_GDPS_SpecificHumidity_IsbL-0500_LatLon0.15_PT039H.grib2 2026-04-23 16:06 1.4M
20260423T12Z_MSC_GDPS_SpecificHumidity_IsbL-0550_LatLon0.15_PT039H.grib2 2026-04-23 16:06 1.6M
20260423T12Z_MSC_GDPS_SpecificHumidity_IsbL-0600_LatLon0.15_PT039H.grib2 2026-04-23 16:06 1.7M
20260423T12Z_MSC_GDPS_SpecificHumidity_IsbL-0650_LatLon0.15_PT039H.grib2 2026-04-23 16:06 1.5M
20260423T12Z_MSC_GDPS_SpecificHumidity_IsbL-0700_LatLon0.15_PT039H.grib2 2026-04-23 16:06 1.6M
20260423T12Z_MSC_GDPS_SpecificHumidity_IsbL-0750_LatLon0.15_PT039H.grib2 2026-04-23 16:06 1.7M
20260423T12Z_MSC_GDPS_SpecificHumidity_IsbL-0800_LatLon0.15_PT039H.grib2 2026-04-23 16:06 1.8M
20260423T12Z_MSC_GDPS_SpecificHumidity_IsbL-0850_LatLon0.15_PT039H.grib2 2026-04-23 16:06 1.9M
20260423T12Z_MSC_GDPS_SpecificHumidity_IsbL-0875_LatLon0.15_PT039H.grib2 2026-04-23 16:06 1.9M
20260423T12Z_MSC_GDPS_SpecificHumidity_IsbL-0900_LatLon0.15_PT039H.grib2 2026-04-23 16:06 1.9M
20260423T12Z_MSC_GDPS_SpecificHumidity_IsbL-0925_LatLon0.15_PT039H.grib2 2026-04-23 16:06 1.9M
20260423T12Z_MSC_GDPS_SpecificHumidity_IsbL-0950_LatLon0.15_PT039H.grib2 2026-04-23 16:06 1.5M
20260423T12Z_MSC_GDPS_SpecificHumidity_IsbL-0970_LatLon0.15_PT039H.grib2 2026-04-23 16:06 1.5M
20260423T12Z_MSC_GDPS_SpecificHumidity_IsbL-0985_LatLon0.15_PT039H.grib2 2026-04-23 16:06 1.5M
20260423T12Z_MSC_GDPS_SpecificHumidity_IsbL-1000_LatLon0.15_PT039H.grib2 2026-04-23 16:06 1.5M
20260423T12Z_MSC_GDPS_SpecificHumidity_IsbL-1015_LatLon0.15_PT039H.grib2 2026-04-23 16:06 1.4M
20260423T12Z_MSC_GDPS_SpecificHumidity_Sfc_LatLon0.15_PT039H.grib2 2026-04-23 16:06 655K
20260423T12Z_MSC_GDPS_Thickness_IsbL-0850to0700_LatLon0.15_PT039H.grib2 2026-04-23 16:06 458K
20260423T12Z_MSC_GDPS_Thickness_IsbL-1000to0500_LatLon0.15_PT039H.grib2 2026-04-23 16:06 366K
20260423T12Z_MSC_GDPS_Thickness_IsbL-1000to0850_LatLon0.15_PT039H.grib2 2026-04-23 16:06 484K
20260423T12Z_MSC_GDPS_TotalCloudCover_Sfc_LatLon0.15_PT039H.grib2 2026-04-23 16:06 826K
20260423T12Z_MSC_GDPS_TotalTotalsIndex_Sfc_LatLon0.15_PT039H.grib2 2026-04-23 16:06 6.2M
20260423T12Z_MSC_GDPS_UVIndex-ClearSky_Sfc_LatLon0.15_PT039H.grib2 2026-04-23 16:50 1.0M
20260423T12Z_MSC_GDPS_UVIndex_Sfc_LatLon0.15_PT039H.grib2 2026-04-23 16:50 1.5M
20260423T12Z_MSC_GDPS_UpwardLongwaveRadiationFlux_NTAtm_LatLon0.15_PT039H.grib2 2026-04-23 16:06 1.1M
20260423T12Z_MSC_GDPS_VerticalVelocity_IsbL-0200_LatLon0.15_PT039H.grib2 2026-04-23 16:06 944K
20260423T12Z_MSC_GDPS_VerticalVelocity_IsbL-0250_LatLon0.15_PT039H.grib2 2026-04-23 16:06 1.0M
20260423T12Z_MSC_GDPS_VerticalVelocity_IsbL-0500_LatLon0.15_PT039H.grib2 2026-04-23 16:06 1.0M
20260423T12Z_MSC_GDPS_VerticalVelocity_IsbL-0600_LatLon0.15_PT039H.grib2 2026-04-23 16:06 1.0M
20260423T12Z_MSC_GDPS_VerticalVelocity_IsbL-0700_LatLon0.15_PT039H.grib2 2026-04-23 16:06 1.1M
20260423T12Z_MSC_GDPS_VerticalVelocity_IsbL-0850_LatLon0.15_PT039H.grib2 2026-04-23 16:06 1.6M
20260423T12Z_MSC_GDPS_WindChill_Sfc_LatLon0.15_PT039H.grib2 2026-04-23 16:06 5.3M
20260423T12Z_MSC_GDPS_WindDir_AGL-10m_LatLon0.15_PT039H.grib2 2026-04-23 16:06 1.3M
20260423T12Z_MSC_GDPS_WindDir_AGL-120m_LatLon0.15_PT039H.grib2 2026-04-23 16:06 1.4M
20260423T12Z_MSC_GDPS_WindDir_AGL-40m_LatLon0.15_PT039H.grib2 2026-04-23 16:06 1.4M
20260423T12Z_MSC_GDPS_WindDir_AGL-80m_LatLon0.15_PT039H.grib2 2026-04-23 16:06 1.4M
20260423T12Z_MSC_GDPS_WindDir_IsbL-0001_LatLon0.15_PT039H.grib2 2026-04-23 16:06 650K
20260423T12Z_MSC_GDPS_WindDir_IsbL-0005_LatLon0.15_PT039H.grib2 2026-04-23 16:06 803K
20260423T12Z_MSC_GDPS_WindDir_IsbL-0010_LatLon0.15_PT039H.grib2 2026-04-23 16:06 874K
20260423T12Z_MSC_GDPS_WindDir_IsbL-0020_LatLon0.15_PT039H.grib2 2026-04-23 16:06 951K
20260423T12Z_MSC_GDPS_WindDir_IsbL-0030_LatLon0.15_PT039H.grib2 2026-04-23 16:06 916K
20260423T12Z_MSC_GDPS_WindDir_IsbL-0050_LatLon0.15_PT039H.grib2 2026-04-23 16:06 968K
20260423T12Z_MSC_GDPS_WindDir_IsbL-0100_LatLon0.15_PT039H.grib2 2026-04-23 16:06 1.0M
20260423T12Z_MSC_GDPS_WindDir_IsbL-0150_LatLon0.15_PT039H.grib2 2026-04-23 16:06 1.0M
20260423T12Z_MSC_GDPS_WindDir_IsbL-0175_LatLon0.15_PT039H.grib2 2026-04-23 16:06 1.1M
20260423T12Z_MSC_GDPS_WindDir_IsbL-0200_LatLon0.15_PT039H.grib2 2026-04-23 16:06 1.1M
20260423T12Z_MSC_GDPS_WindDir_IsbL-0225_LatLon0.15_PT039H.grib2 2026-04-23 16:06 1.1M
20260423T12Z_MSC_GDPS_WindDir_IsbL-0250_LatLon0.15_PT039H.grib2 2026-04-23 16:06 1.1M
20260423T12Z_MSC_GDPS_WindDir_IsbL-0275_LatLon0.15_PT039H.grib2 2026-04-23 16:06 1.2M
20260423T12Z_MSC_GDPS_WindDir_IsbL-0300_LatLon0.15_PT039H.grib2 2026-04-23 16:06 1.2M
20260423T12Z_MSC_GDPS_WindDir_IsbL-0350_LatLon0.15_PT039H.grib2 2026-04-23 16:06 1.2M
20260423T12Z_MSC_GDPS_WindDir_IsbL-0400_LatLon0.15_PT039H.grib2 2026-04-23 16:06 1.2M
20260423T12Z_MSC_GDPS_WindDir_IsbL-0450_LatLon0.15_PT039H.grib2 2026-04-23 16:06 1.3M
20260423T12Z_MSC_GDPS_WindDir_IsbL-0500_LatLon0.15_PT039H.grib2 2026-04-23 16:06 1.4M
20260423T12Z_MSC_GDPS_WindDir_IsbL-0550_LatLon0.15_PT039H.grib2 2026-04-23 16:06 1.4M
20260423T12Z_MSC_GDPS_WindDir_IsbL-0600_LatLon0.15_PT039H.grib2 2026-04-23 16:06 1.5M
20260423T12Z_MSC_GDPS_WindDir_IsbL-0650_LatLon0.15_PT039H.grib2 2026-04-23 16:06 1.5M
20260423T12Z_MSC_GDPS_WindDir_IsbL-0700_LatLon0.15_PT039H.grib2 2026-04-23 16:06 1.6M
20260423T12Z_MSC_GDPS_WindDir_IsbL-0750_LatLon0.15_PT039H.grib2 2026-04-23 16:06 1.7M
20260423T12Z_MSC_GDPS_WindDir_IsbL-0800_LatLon0.15_PT039H.grib2 2026-04-23 16:06 1.8M
20260423T12Z_MSC_GDPS_WindDir_IsbL-0850_LatLon0.15_PT039H.grib2 2026-04-23 16:06 1.9M
20260423T12Z_MSC_GDPS_WindDir_IsbL-0875_LatLon0.15_PT039H.grib2 2026-04-23 16:06 2.0M
20260423T12Z_MSC_GDPS_WindDir_IsbL-0900_LatLon0.15_PT039H.grib2 2026-04-23 16:06 2.0M
20260423T12Z_MSC_GDPS_WindDir_IsbL-0925_LatLon0.15_PT039H.grib2 2026-04-23 16:06 2.0M
20260423T12Z_MSC_GDPS_WindDir_IsbL-0950_LatLon0.15_PT039H.grib2 2026-04-23 16:06 2.0M
20260423T12Z_MSC_GDPS_WindDir_IsbL-0970_LatLon0.15_PT039H.grib2 2026-04-23 16:06 2.0M
20260423T12Z_MSC_GDPS_WindDir_IsbL-0985_LatLon0.15_PT039H.grib2 2026-04-23 16:06 2.0M
20260423T12Z_MSC_GDPS_WindDir_IsbL-1000_LatLon0.15_PT039H.grib2 2026-04-23 16:06 2.1M
20260423T12Z_MSC_GDPS_WindDir_IsbL-1015_LatLon0.15_PT039H.grib2 2026-04-23 16:06 2.0M
20260423T12Z_MSC_GDPS_WindGust-Max_AGL-10m_LatLon0.15_PT039H.grib2 2026-04-23 16:06 2.2M
20260423T12Z_MSC_GDPS_WindGust-Min_AGL-10m_LatLon0.15_PT039H.grib2 2026-04-23 16:06 2.1M
20260423T12Z_MSC_GDPS_WindGust_AGL-10m_LatLon0.15_PT039H.grib2 2026-04-23 16:06 2.1M
20260423T12Z_MSC_GDPS_WindSpeed_AGL-10m_LatLon0.15_PT039H.grib2 2026-04-23 16:06 1.1M
20260423T12Z_MSC_GDPS_WindSpeed_AGL-120m_LatLon0.15_PT039H.grib2 2026-04-23 16:06 1.2M
20260423T12Z_MSC_GDPS_WindSpeed_AGL-40m_LatLon0.15_PT039H.grib2 2026-04-23 16:06 1.2M
20260423T12Z_MSC_GDPS_WindSpeed_AGL-80m_LatLon0.15_PT039H.grib2 2026-04-23 16:06 1.2M
20260423T12Z_MSC_GDPS_WindSpeed_IsbL-0001_LatLon0.15_PT039H.grib2 2026-04-23 16:06 639K
20260423T12Z_MSC_GDPS_WindSpeed_IsbL-0005_LatLon0.15_PT039H.grib2 2026-04-23 16:06 693K
20260423T12Z_MSC_GDPS_WindSpeed_IsbL-0010_LatLon0.15_PT039H.grib2 2026-04-23 16:06 632K
20260423T12Z_MSC_GDPS_WindSpeed_IsbL-0020_LatLon0.15_PT039H.grib2 2026-04-23 16:06 859K
20260423T12Z_MSC_GDPS_WindSpeed_IsbL-0030_LatLon0.15_PT039H.grib2 2026-04-23 16:06 856K
20260423T12Z_MSC_GDPS_WindSpeed_IsbL-0050_LatLon0.15_PT039H.grib2 2026-04-23 16:06 1.0M
20260423T12Z_MSC_GDPS_WindSpeed_IsbL-0100_LatLon0.15_PT039H.grib2 2026-04-23 16:06 1.1M
20260423T12Z_MSC_GDPS_WindSpeed_IsbL-0150_LatLon0.15_PT039H.grib2 2026-04-23 16:06 1.0M
20260423T12Z_MSC_GDPS_WindSpeed_IsbL-0175_LatLon0.15_PT039H.grib2 2026-04-23 16:06 1.0M
20260423T12Z_MSC_GDPS_WindSpeed_IsbL-0200_LatLon0.15_PT039H.grib2 2026-04-23 16:06 1.1M
20260423T12Z_MSC_GDPS_WindSpeed_IsbL-0225_LatLon0.15_PT039H.grib2 2026-04-23 16:06 1.1M
20260423T12Z_MSC_GDPS_WindSpeed_IsbL-0250_LatLon0.15_PT039H.grib2 2026-04-23 16:06 1.1M
20260423T12Z_MSC_GDPS_WindSpeed_IsbL-0275_LatLon0.15_PT039H.grib2 2026-04-23 16:06 1.1M
20260423T12Z_MSC_GDPS_WindSpeed_IsbL-0300_LatLon0.15_PT039H.grib2 2026-04-23 16:06 1.1M
20260423T12Z_MSC_GDPS_WindSpeed_IsbL-0350_LatLon0.15_PT039H.grib2 2026-04-23 16:06 1.1M
20260423T12Z_MSC_GDPS_WindSpeed_IsbL-0400_LatLon0.15_PT039H.grib2 2026-04-23 16:06 1.1M
20260423T12Z_MSC_GDPS_WindSpeed_IsbL-0450_LatLon0.15_PT039H.grib2 2026-04-23 16:06 1.1M
20260423T12Z_MSC_GDPS_WindSpeed_IsbL-0500_LatLon0.15_PT039H.grib2 2026-04-23 16:06 1.1M
20260423T12Z_MSC_GDPS_WindSpeed_IsbL-0550_LatLon0.15_PT039H.grib2 2026-04-23 16:06 1.1M
20260423T12Z_MSC_GDPS_WindSpeed_IsbL-0600_LatLon0.15_PT039H.grib2 2026-04-23 16:06 1.1M
20260423T12Z_MSC_GDPS_WindSpeed_IsbL-0650_LatLon0.15_PT039H.grib2 2026-04-23 16:06 1.4M
20260423T12Z_MSC_GDPS_WindSpeed_IsbL-0700_LatLon0.15_PT039H.grib2 2026-04-23 16:06 1.5M
20260423T12Z_MSC_GDPS_WindSpeed_IsbL-0750_LatLon0.15_PT039H.grib2 2026-04-23 16:06 1.5M
20260423T12Z_MSC_GDPS_WindSpeed_IsbL-0800_LatLon0.15_PT039H.grib2 2026-04-23 16:06 1.6M
20260423T12Z_MSC_GDPS_WindSpeed_IsbL-0850_LatLon0.15_PT039H.grib2 2026-04-23 16:06 1.7M
20260423T12Z_MSC_GDPS_WindSpeed_IsbL-0875_LatLon0.15_PT039H.grib2 2026-04-23 16:06 1.8M
20260423T12Z_MSC_GDPS_WindSpeed_IsbL-0900_LatLon0.15_PT039H.grib2 2026-04-23 16:06 1.8M
20260423T12Z_MSC_GDPS_WindSpeed_IsbL-0925_LatLon0.15_PT039H.grib2 2026-04-23 16:06 1.8M
20260423T12Z_MSC_GDPS_WindSpeed_IsbL-0950_LatLon0.15_PT039H.grib2 2026-04-23 16:06 1.9M
20260423T12Z_MSC_GDPS_WindSpeed_IsbL-0970_LatLon0.15_PT039H.grib2 2026-04-23 16:06 1.9M
20260423T12Z_MSC_GDPS_WindSpeed_IsbL-0985_LatLon0.15_PT039H.grib2 2026-04-23 16:06 1.9M
20260423T12Z_MSC_GDPS_WindSpeed_IsbL-1000_LatLon0.15_PT039H.grib2 2026-04-23 16:06 1.9M
20260423T12Z_MSC_GDPS_WindSpeed_IsbL-1015_LatLon0.15_PT039H.grib2 2026-04-23 16:06 1.8M
20260423T12Z_MSC_GDPS_WindU_AGL-10m_LatLon0.15_PT039H.grib2 2026-04-23 16:06 1.3M
20260423T12Z_MSC_GDPS_WindU_AGL-120m_LatLon0.15_PT039H.grib2 2026-04-23 16:06 972K
20260423T12Z_MSC_GDPS_WindU_AGL-40m_LatLon0.15_PT039H.grib2 2026-04-23 16:06 965K
20260423T12Z_MSC_GDPS_WindU_AGL-80m_LatLon0.15_PT039H.grib2 2026-04-23 16:06 971K
20260423T12Z_MSC_GDPS_WindU_IsbL-0001_LatLon0.15_PT039H.grib2 2026-04-23 16:06 643K
20260423T12Z_MSC_GDPS_WindU_IsbL-0005_LatLon0.15_PT039H.grib2 2026-04-23 16:06 693K
20260423T12Z_MSC_GDPS_WindU_IsbL-0010_LatLon0.15_PT039H.grib2 2026-04-23 16:06 704K
20260423T12Z_MSC_GDPS_WindU_IsbL-0020_LatLon0.15_PT039H.grib2 2026-04-23 16:06 734K
20260423T12Z_MSC_GDPS_WindU_IsbL-0030_LatLon0.15_PT039H.grib2 2026-04-23 16:06 736K
20260423T12Z_MSC_GDPS_WindU_IsbL-0050_LatLon0.15_PT039H.grib2 2026-04-23 16:06 702K
20260423T12Z_MSC_GDPS_WindU_IsbL-0100_LatLon0.15_PT039H.grib2 2026-04-23 16:06 911K
20260423T12Z_MSC_GDPS_WindU_IsbL-0150_LatLon0.15_PT039H.grib2 2026-04-23 16:06 1.0M
20260423T12Z_MSC_GDPS_WindU_IsbL-0175_LatLon0.15_PT039H.grib2 2026-04-23 16:06 1.0M
20260423T12Z_MSC_GDPS_WindU_IsbL-0200_LatLon0.15_PT039H.grib2 2026-04-23 16:06 845K
20260423T12Z_MSC_GDPS_WindU_IsbL-0225_LatLon0.15_PT039H.grib2 2026-04-23 16:06 857K
20260423T12Z_MSC_GDPS_WindU_IsbL-0250_LatLon0.15_PT039H.grib2 2026-04-23 16:06 856K
20260423T12Z_MSC_GDPS_WindU_IsbL-0275_LatLon0.15_PT039H.grib2 2026-04-23 16:06 881K
20260423T12Z_MSC_GDPS_WindU_IsbL-0300_LatLon0.15_PT039H.grib2 2026-04-23 16:06 874K
20260423T12Z_MSC_GDPS_WindU_IsbL-0350_LatLon0.15_PT039H.grib2 2026-04-23 16:06 947K
20260423T12Z_MSC_GDPS_WindU_IsbL-0400_LatLon0.15_PT039H.grib2 2026-04-23 16:06 893K
20260423T12Z_MSC_GDPS_WindU_IsbL-0450_LatLon0.15_PT039H.grib2 2026-04-23 16:06 897K
20260423T12Z_MSC_GDPS_WindU_IsbL-0500_LatLon0.15_PT039H.grib2 2026-04-23 16:06 1.1M
20260423T12Z_MSC_GDPS_WindU_IsbL-0550_LatLon0.15_PT039H.grib2 2026-04-23 16:06 1.1M
20260423T12Z_MSC_GDPS_WindU_IsbL-0600_LatLon0.15_PT039H.grib2 2026-04-23 16:06 1.1M
20260423T12Z_MSC_GDPS_WindU_IsbL-0650_LatLon0.15_PT039H.grib2 2026-04-23 16:06 1.2M
20260423T12Z_MSC_GDPS_WindU_IsbL-0700_LatLon0.15_PT039H.grib2 2026-04-23 16:06 1.2M
20260423T12Z_MSC_GDPS_WindU_IsbL-0750_LatLon0.15_PT039H.grib2 2026-04-23 16:06 1.3M
20260423T12Z_MSC_GDPS_WindU_IsbL-0800_LatLon0.15_PT039H.grib2 2026-04-23 16:06 1.3M
20260423T12Z_MSC_GDPS_WindU_IsbL-0850_LatLon0.15_PT039H.grib2 2026-04-23 16:06 1.4M
20260423T12Z_MSC_GDPS_WindU_IsbL-0875_LatLon0.15_PT039H.grib2 2026-04-23 16:06 1.4M
20260423T12Z_MSC_GDPS_WindU_IsbL-0900_LatLon0.15_PT039H.grib2 2026-04-23 16:06 1.5M
20260423T12Z_MSC_GDPS_WindU_IsbL-0925_LatLon0.15_PT039H.grib2 2026-04-23 16:06 1.5M
20260423T12Z_MSC_GDPS_WindU_IsbL-0950_LatLon0.15_PT039H.grib2 2026-04-23 16:06 1.4M
20260423T12Z_MSC_GDPS_WindU_IsbL-0970_LatLon0.15_PT039H.grib2 2026-04-23 16:06 1.4M
20260423T12Z_MSC_GDPS_WindU_IsbL-0985_LatLon0.15_PT039H.grib2 2026-04-23 16:06 1.4M
20260423T12Z_MSC_GDPS_WindU_IsbL-1000_LatLon0.15_PT039H.grib2 2026-04-23 16:06 1.4M
20260423T12Z_MSC_GDPS_WindU_IsbL-1015_LatLon0.15_PT039H.grib2 2026-04-23 16:06 1.3M
20260423T12Z_MSC_GDPS_WindV_AGL-10m_LatLon0.15_PT039H.grib2 2026-04-23 16:06 1.6M
20260423T12Z_MSC_GDPS_WindV_AGL-120m_LatLon0.15_PT039H.grib2 2026-04-23 16:06 1.2M
20260423T12Z_MSC_GDPS_WindV_AGL-40m_LatLon0.15_PT039H.grib2 2026-04-23 16:06 1.2M
20260423T12Z_MSC_GDPS_WindV_AGL-80m_LatLon0.15_PT039H.grib2 2026-04-23 16:06 1.2M
20260423T12Z_MSC_GDPS_WindV_IsbL-0001_LatLon0.15_PT039H.grib2 2026-04-23 16:06 704K
20260423T12Z_MSC_GDPS_WindV_IsbL-0005_LatLon0.15_PT039H.grib2 2026-04-23 16:06 783K
20260423T12Z_MSC_GDPS_WindV_IsbL-0010_LatLon0.15_PT039H.grib2 2026-04-23 16:06 885K
20260423T12Z_MSC_GDPS_WindV_IsbL-0020_LatLon0.15_PT039H.grib2 2026-04-23 16:06 932K
20260423T12Z_MSC_GDPS_WindV_IsbL-0030_LatLon0.15_PT039H.grib2 2026-04-23 16:06 930K
20260423T12Z_MSC_GDPS_WindV_IsbL-0050_LatLon0.15_PT039H.grib2 2026-04-23 16:06 908K
20260423T12Z_MSC_GDPS_WindV_IsbL-0100_LatLon0.15_PT039H.grib2 2026-04-23 16:06 1.0M
20260423T12Z_MSC_GDPS_WindV_IsbL-0150_LatLon0.15_PT039H.grib2 2026-04-23 16:06 928K
20260423T12Z_MSC_GDPS_WindV_IsbL-0175_LatLon0.15_PT039H.grib2 2026-04-23 16:06 1.0M
20260423T12Z_MSC_GDPS_WindV_IsbL-0200_LatLon0.15_PT039H.grib2 2026-04-23 16:06 1.0M
20260423T12Z_MSC_GDPS_WindV_IsbL-0225_LatLon0.15_PT039H.grib2 2026-04-23 16:06 851K
20260423T12Z_MSC_GDPS_WindV_IsbL-0250_LatLon0.15_PT039H.grib2 2026-04-23 16:06 848K
20260423T12Z_MSC_GDPS_WindV_IsbL-0275_LatLon0.15_PT039H.grib2 2026-04-23 16:06 872K
20260423T12Z_MSC_GDPS_WindV_IsbL-0300_LatLon0.15_PT039H.grib2 2026-04-23 16:06 863K
20260423T12Z_MSC_GDPS_WindV_IsbL-0350_LatLon0.15_PT039H.grib2 2026-04-23 16:06 879K
20260423T12Z_MSC_GDPS_WindV_IsbL-0400_LatLon0.15_PT039H.grib2 2026-04-23 16:06 883K
20260423T12Z_MSC_GDPS_WindV_IsbL-0450_LatLon0.15_PT039H.grib2 2026-04-23 16:06 1.1M
20260423T12Z_MSC_GDPS_WindV_IsbL-0500_LatLon0.15_PT039H.grib2 2026-04-23 16:06 1.1M
20260423T12Z_MSC_GDPS_WindV_IsbL-0550_LatLon0.15_PT039H.grib2 2026-04-23 16:06 1.1M
20260423T12Z_MSC_GDPS_WindV_IsbL-0600_LatLon0.15_PT039H.grib2 2026-04-23 16:06 1.1M
20260423T12Z_MSC_GDPS_WindV_IsbL-0650_LatLon0.15_PT039H.grib2 2026-04-23 16:06 1.2M
20260423T12Z_MSC_GDPS_WindV_IsbL-0700_LatLon0.15_PT039H.grib2 2026-04-23 16:06 1.2M
20260423T12Z_MSC_GDPS_WindV_IsbL-0750_LatLon0.15_PT039H.grib2 2026-04-23 16:06 1.2M
20260423T12Z_MSC_GDPS_WindV_IsbL-0800_LatLon0.15_PT039H.grib2 2026-04-23 16:06 1.3M
20260423T12Z_MSC_GDPS_WindV_IsbL-0850_LatLon0.15_PT039H.grib2 2026-04-23 16:06 1.4M
20260423T12Z_MSC_GDPS_WindV_IsbL-0875_LatLon0.15_PT039H.grib2 2026-04-23 16:06 1.4M
20260423T12Z_MSC_GDPS_WindV_IsbL-0900_LatLon0.15_PT039H.grib2 2026-04-23 16:06 1.4M
20260423T12Z_MSC_GDPS_WindV_IsbL-0925_LatLon0.15_PT039H.grib2 2026-04-23 16:06 1.4M
20260423T12Z_MSC_GDPS_WindV_IsbL-0950_LatLon0.15_PT039H.grib2 2026-04-23 16:06 1.4M
20260423T12Z_MSC_GDPS_WindV_IsbL-0970_LatLon0.15_PT039H.grib2 2026-04-23 16:06 1.4M
20260423T12Z_MSC_GDPS_WindV_IsbL-0985_LatLon0.15_PT039H.grib2 2026-04-23 16:06 1.7M
20260423T12Z_MSC_GDPS_WindV_IsbL-1000_LatLon0.15_PT039H.grib2 2026-04-23 16:06 1.7M
20260423T12Z_MSC_GDPS_WindV_IsbL-1015_LatLon0.15_PT039H.grib2 2026-04-23 16:06 1.6M